• în România
  • Lista ţărilor
  • Pe 7 zile
  • Temperatura apei
  • Hartă satelitară
  • Meteo pe hartă
  • Widget-uri
  • user-avatar
    Intrare

    Meteo pe oră la Hasselt

    Astăzi, 19 Iunie, Marţi

    Timp Temperatura Precipitaţii Vânt Presiune Umiditate
    00:00 +14°C° 0 mm 3 m/s 763 mmHg 92%
    01:00 +14°C° 0 mm 3 m/s 763 mmHg 93%
    02:00 +14°C° 0 mm 3 m/s 763 mmHg 94%
    03:00 +13°C° 0 mm 3 m/s 763 mmHg 96%
    04:00 +14°C° 0 mm 4 m/s 763 mmHg 94%
    05:00 +15°C° 0 mm 4 m/s 763 mmHg 93%
    06:00 +17°C° 0 mm 4 m/s 764 mmHg 91%
    07:00 +17°C° 0 mm 4 m/s 764 mmHg 90%
    08:00 +18°C° 0 mm 3 m/s 764 mmHg 89%
    09:00 +18°C° 0 mm 3 m/s 764 mmHg 88%
    10:00 +19°C° 0 mm 3 m/s 764 mmHg 86%
    11:00 +20°C° 0 mm 3 m/s 764 mmHg 83%
    12:00 +21°C° 0 mm 3 m/s 764 mmHg 81%
    13:00 +21°C° 0,1 mm 3 m/s 764 mmHg 80%
    14:00 +21°C° 0,1 mm 3 m/s 764 mmHg 78%
    15:00 +22°C° 0,1 mm 3 m/s 764 mmHg 77%
    16:00 +22°C° 0 mm 3 m/s 764 mmHg 79%
    17:00 +21°C° 0 mm 2 m/s 764 mmHg 80%
    18:00 +21°C° 0 mm 2 m/s 764 mmHg 82%
    19:00 +20°C° 0 mm 2 m/s 764 mmHg 85%
    20:00 +20°C° 0 mm 1 m/s 764 mmHg 88%
    21:00 +19°C° 0 mm 1 m/s 764 mmHg 92%
    22:00 +19°C° 0 mm 1 m/s 765 mmHg 93%
    23:00 +18°C° 0 mm 1 m/s 765 mmHg 93%

    Mâine, 20 Iunie, Miercuri

    Timp Temperatura Precipitaţii Vânt Presiune Umiditate
    00:00 +18°C° 0 mm 1 m/s 765 mmHg 94%
    01:00 +16°C° 0 mm 1 m/s 764 mmHg 95%
    02:00 +16°C° 0 mm 1 m/s 764 mmHg 95%
    03:00 +16°C° 0 mm 1 m/s 764 mmHg 96%
    04:00 +18°C° 0 mm 1 m/s 764 mmHg 93%
    05:00 +18°C° 0 mm 2 m/s 764 mmHg 91%
    06:00 +19°C° 0 mm 2 m/s 764 mmHg 88%
    07:00 +21°C° 0 mm 2 m/s 764 mmHg 81%
    08:00 +23°C° 0 mm 2 m/s 764 mmHg 74%
    09:00 +25°C° 0 mm 2 m/s 763 mmHg 68%
    10:00 +26°C° 0 mm 2 m/s 763 mmHg 65%
    11:00 +27°C° 0 mm 2 m/s 763 mmHg 62%
    12:00 +27°C° 0 mm 2 m/s 763 mmHg 59%
    13:00 +27°C° 0 mm 3 m/s 762 mmHg 61%
    14:00 +27°C° 0 mm 3 m/s 762 mmHg 62%
    15:00 +27°C° 0 mm 3 m/s 762 mmHg 64%
    16:00 +26°C° 0 mm 3 m/s 762 mmHg 66%
    17:00 +26°C° 0 mm 2 m/s 761 mmHg 69%
    18:00 +26°C° 0 mm 2 m/s 761 mmHg 72%
    19:00 +24°C° 0 mm 2 m/s 761 mmHg 77%
    20:00 +21°C° 0 mm 2 m/s 761 mmHg 83%
    21:00 +19°C° 0 mm 2 m/s 761 mmHg 89%
    22:00 +19°C° 0 mm 2 m/s 761 mmHg 91%
    23:00 +18°C° 0 mm 2 m/s 761 mmHg 92%

    Poimâine, 21 Iunie, Joi

    Timp Temperatura Precipitaţii Vânt Presiune Umiditate
    00:00 +17°C° 0 mm 2 m/s 761 mmHg 94%
    01:00 +17°C° 0 mm 2 m/s 760 mmHg 95%
    02:00 +16°C° 0 mm 2 m/s 760 mmHg 95%
    03:00 +16°C° 0 mm 3 m/s 760 mmHg 96%
    04:00 +16°C° 0 mm 3 m/s 760 mmHg 94%
    05:00 +17°C° 0 mm 4 m/s 760 mmHg 92%
    06:00 +17°C° 0 mm 4 m/s 760 mmHg 90%
    07:00 +16°C° 0,1 mm 5 m/s 760 mmHg 88%
    08:00 +15°C° 0,1 mm 5 m/s 760 mmHg 85%
    09:00 +14°C° 0,1 mm 5 m/s 761 mmHg 82%
    10:00 +15°C° 0 mm 6 m/s 761 mmHg 72%
    11:00 +17°C° 0 mm 6 m/s 761 mmHg 61%
    12:00 +18°C° 0 mm 7 m/s 762 mmHg 50%
    13:00 +18°C° 0 mm 7 m/s 762 mmHg 50%
    14:00 +17°C° 0 mm 7 m/s 762 mmHg 49%
    15:00 +17°C° 0 mm 7 m/s 762 mmHg 49%
    16:00 +16°C° 0 mm 6 m/s 762 mmHg 53%
    17:00 +15°C° 0 mm 6 m/s 763 mmHg 57%
    18:00 +14°C° 0 mm 5 m/s 763 mmHg 62%
    19:00 +13°C° 0 mm 5 m/s 764 mmHg 66%
    20:00 +12°C° 0 mm 4 m/s 764 mmHg 71%
    21:00 +10°C° 0 mm 3 m/s 765 mmHg 75%
    22:00 +10°C° 0 mm 3 m/s 765 mmHg 77%
    23:00 +9°C° 0 mm 3 m/s 765 mmHg 78%

    22 Iunie, Vineri

    Timp Temperatura Precipitaţii Vânt Presiune Umiditate
    00:00 +8°C° 0 mm 3 m/s 765 mmHg 80%
    01:00 +8°C° 0 mm 3 m/s 765 mmHg 80%
    02:00 +8°C° 0 mm 3 m/s 765 mmHg 80%
    03:00 +8°C° 0 mm 3 m/s 764 mmHg 80%
    04:00 +9°C° 0 mm 3 m/s 765 mmHg 77%
    05:00 +10°C° 0 mm 4 m/s 765 mmHg 75%
    06:00 +12°C° 0 mm 5 m/s 765 mmHg 72%
    07:00 +12°C° 0,1 mm 5 m/s 765 mmHg 72%
    08:00 +12°C° 0,1 mm 5 m/s 765 mmHg 73%
    09:00 +13°C° 0,1 mm 5 m/s 765 mmHg 73%
    10:00 +14°C° 0,1 mm 5 m/s 765 mmHg 70%
    11:00 +14°C° 0,1 mm 5 m/s 765 mmHg 67%
    12:00 +15°C° 0,1 mm 6 m/s 765 mmHg 64%
    13:00 +16°C° 0,1 mm 6 m/s 765 mmHg 63%
    14:00 +16°C° 0,1 mm 6 m/s 765 mmHg 62%
    15:00 +16°C° 0,1 mm 6 m/s 765 mmHg 62%
    16:00 +16°C° 0,1 mm 6 m/s 765 mmHg 65%
    17:00 +15°C° 0,1 mm 5 m/s 765 mmHg 68%
    18:00 +15°C° 0,1 mm 5 m/s 765 mmHg 71%
    19:00 +13°C° 0 mm 4 m/s 765 mmHg 75%
    20:00 +12°C° 0 mm 4 m/s 765 mmHg 80%
    21:00 +11°C° 0 mm 3 m/s 766 mmHg 84%
    22:00 +10°C° 0 mm 3 m/s 766 mmHg 87%
    23:00 +10°C° 0 mm 3 m/s 766 mmHg 89%

    23 Iunie, Sâmbătă

    Timp Temperatura Precipitaţii Vânt Presiune Umiditate
    00:00 +9°C° 0 mm 2 m/s 766 mmHg 91%
    01:00 +9°C° 0 mm 2 m/s 766 mmHg 92%
    02:00 +8°C° 0 mm 2 m/s 766 mmHg 93%
    03:00 +8°C° 0 mm 2 m/s 766 mmHg 93%
    04:00 +9°C° 0 mm 2 m/s 766 mmHg 89%
    05:00 +10°C° 0 mm 2 m/s 766 mmHg 84%
    06:00 +12°C° 0 mm 3 m/s 766 mmHg 80%
    07:00 +12°C° 0 mm 3 m/s 766 mmHg 77%
    08:00 +13°C° 0 mm 3 m/s 766 mmHg 74%
    09:00 +13°C° 0 mm 3 m/s 766 mmHg 71%
    10:00 +14°C° 0 mm 3 m/s 766 mmHg 67%
    11:00 +16°C° 0 mm 3 m/s 766 mmHg 63%
    12:00 +17°C° 0 mm 3 m/s 766 mmHg 60%
    13:00 +18°C° 0 mm 3 m/s 765 mmHg 56%
    14:00 +19°C° 0 mm 4 m/s 765 mmHg 53%
    15:00 +20°C° 0 mm 4 m/s 765 mmHg 49%
    16:00 +19°C° 0 mm 4 m/s 765 mmHg 53%
    17:00 +18°C° 0 mm 4 m/s 765 mmHg 57%
    18:00 +18°C° 0 mm 3 m/s 765 mmHg 61%
    19:00 +16°C° 0 mm 3 m/s 765 mmHg 68%
    20:00 +13°C° 0 mm 3 m/s 765 mmHg 75%
    21:00 +12°C° 0 mm 2 m/s 765 mmHg 82%
    22:00 +12°C° 0 mm 2 m/s 765 mmHg 85%
    23:00 +10°C° 0 mm 2 m/s 765 mmHg 88%

    24 Iunie, Duminică

    Timp Temperatura Precipitaţii Vânt Presiune Umiditate
    00:00 +10°C° 0 mm 1 m/s 765 mmHg 91%
    01:00 +10°C° 0 mm 1 m/s 765 mmHg 92%
    02:00 +10°C° 0 mm 1 m/s 765 mmHg 92%
    03:00 +9°C° 0 mm 1 m/s 765 mmHg 93%
    04:00 +10°C° 0 mm 1 m/s 765 mmHg 89%
    05:00 +12°C° 0 mm 1 m/s 765 mmHg 85%
    06:00 +13°C° 0 mm 1 m/s 765 mmHg 81%
    07:00 +14°C° 0 mm 1 m/s 765 mmHg 74%
    08:00 +16°C° 0 mm 2 m/s 765 mmHg 66%
    09:00 +17°C° 0 mm 2 m/s 765 mmHg 58%
    10:00 +18°C° 0 mm 2 m/s 765 mmHg 54%
    11:00 +19°C° 0 mm 2 m/s 765 mmHg 49%
    12:00 +21°C° 0 mm 2 m/s 764 mmHg 44%
    13:00 +21°C° 0 mm 2 m/s 764 mmHg 44%
    14:00 +21°C° 0 mm 3 m/s 764 mmHg 43%
    15:00 +22°C° 0 mm 3 m/s 764 mmHg 43%
    16:00 +21°C° 0 mm 3 m/s 764 mmHg 48%
    17:00 +21°C° 0 mm 3 m/s 764 mmHg 52%
    18:00 +20°C° 0 mm 2 m/s 764 mmHg 57%
    19:00 +19°C° 0 mm 2 m/s 764 mmHg 62%
    20:00 +17°C° 0 mm 2 m/s 764 mmHg 67%
    21:00 +15°C° 0 mm 2 m/s 765 mmHg 72%
    22:00 +14°C° 0 mm 2 m/s 765 mmHg 76%
    23:00 +13°C° 0 mm 2 m/s 764 mmHg 80%
    Arată mai mult